Arroyo, PR (00714)

7:14 PM AST on August 28, 2015 (GMT -0400)
Manejo de Emergencias Maunabo | | Change Station
CLOSE
Current Station
Personal Weather Station
Location: Maunabo, PR
Elevation: 374 ft
Nearby Weather Stations

Elev 374 ft 18.01 °N, 65.90 °W | Updated 56 minutes ago

Scattered Clouds
Scattered Clouds
85.0 °F
Feels Like 98 °F
N
7.0
Wind Variable Wind from East
Gusts 14.0 mph

Today
High -- | Low -- °F
--% Chance of Precip.
Yesterday
High -- | Low -- °F
Precip. -- in
6:09 AM 6:41 PM
Waxing Gibbous, 99% visible
Pressure 30.00 in
Visibility 10.0 miles
Clouds Few 2800 ft
Scattered Clouds 5000 ft
Scattered Clouds 9000 ft
Heat Index 98 °F
Dew Point 79 °F
Humidity 82%
Rainfall Not available.
Snow Depth Not available.
UV 0 out of 12
Pollen Not available.
Air Quality Not available.
Flu Activity Not available.
METAR TJSJ 282256Z 10009KT 10SM FEW028 SCT050 SCT090 29/24 A3001 RMK AO2 SLP159 T02890239
Pressure 30.00 in
Visibility 10.0 miles
Clouds Few 2800 ft
Scattered Clouds 5000 ft
Scattered Clouds 9000 ft
Heat Index 98 °F
Dew Point 79 °F
Humidity 82%
Rainfall Not available.
Snow Depth Not available.
UV 0 out of 12
Pollen Not available.
Air Quality Not available.
Flu Activity Not available.
METAR TJSJ 282256Z 10009KT 10SM FEW028 SCT050 SCT090 29/24 A3001 RMK AO2 SLP159 T02890239
Erika has become very unorganized in the face of strong wind shear in the eastern Caribbean Sea. The storm will pass directly over mountainous Hispaniola today, likely weakening it further. If the storm remains intact, it could reach an area favorable for strengthening before moving onto Florida by early next week. Follow the live blog

10-Day Weather Forecast

×

Almanac

Astronomy

Aug. 28, 2015 Rise Set
Actual Time
Civil Twilight
Nautical Twilight
Astronomical Twilight
Moon
Length of Visible Light
Length of Day
Tomorrow will be .
, % of the Moon is Illuminated

Today's Extremes

State Highs State Lows

Community

WunderPhotos

Upload Photos

1,850,522 photos uploaded!

WunderBlogs® & News

Nearby

Air Quality

  Air Quality AQ Index Pollutant
Not available.

Snow Depth

Station Depth Elevation

Earthquake Activity

City Distance Mag. Time & Date
Minimum magnitude displayed is 2.5.

Coastal Water Temperatures

Place Temperature

Stations

Nearby Weather Stations

Station Location Temp. Windchill Dew Point Humidity Wind Precip. Elev Updated Type